sat.trackr.live / text

‹ back to catalog

COSMOS 2540

NORAD 44517 · 2019-057A

PAYLOAD ACTIVE UNKNOWN

§ Identity

Operator
Country
CIS
Launch date
2019-08-30
Launch site
PLMSC
Launch vehicle
Mass (kg)
RCS (m²)

External: N2YO · Heavens-Above · Gunter

§ Orbital elements

Epoch: 2026-09-20T04:39:47.892384Z

Period
103.90 min
Inclination
99.2085°
Eccentricity
0.0014686
Mean motion
13.85961816 rev/d
Perigee alt
932.1 km
Apogee alt
953.6 km
Semi-major
7,321.0 km
B*
7.1174e-5
RAAN
273.1351°
Arg perigee
276.8797°
Mean anomaly
83.0688°
Rev number
35,703

§ Raw data

COSMOS 25401 44517U 19057A   26263.19430431  .00000038  00000+0  71174-4 0  99912 44517  99.2085 273.1351 0014686 276.8797  83.0688 13.85961816357038

JSON: /api/v1/satellites/44517 · /tle

For live sub-satellite position, see the globe view (requires WebGL).

§ Visibility from observer

Set your observer location to see the next 7 days of passes ≥ 10°. The values pass through the URL so the page stays shareable.

No JS? Fill the form by hand. The geolocation button needs JavaScript.